Retour au catalogue

TITAN 3C TRANSTAGE DEB

LostHEO
NORAD 26528·DEBRIS·🇺🇸 United States

Lancé Dec 21, 1965 depuis Cape Canaveral Space Force Station

Loading…

Prochains Passages (prochaines 24 heures)

TLE

PériméSource: Space-Track

Époque: Mar 8, 2026, 05:17 UTC

1 26528U 65108AP  26067.22045376 -.00000175  00000-0 -37199-2 0  9999
2 26528  27.5724 324.5090 6658673 235.8381 336.4465  2.68043131265738

Suivez TITAN 3C TRANSTAGE DEB en temps réel avec AllMySat

Download on the App Store